Back to dashboard

Shanghai Weather News & Live Monitor

Live monitor data for Shanghai with Wunderground, NOAA, and AviationWeather sources, plus recent weather news headlines tied to this city.

Weather snapshot (America/New_York): 2026-05-08 23:07:57
News snapshot (America/New_York): 2026-05-08 22:38:49
Timezone: Asia/Shanghai
WU High Actual
22.2°C
WU High Today
22.2°C
WU High Forecast
22.2°C
NOAA Latest Temp
22.2°C
Aviation Latest Temp
22°C

NOAA24

Date/Time (L) Temp (C) Dew Point (C) Relative Humidity (%) Wind Direction Wind Speed (mph) Visibility (miles) Weather
May 1, 5:30 pm 22.2°C 7.8°C 41 SSE 11 6.21
May 1, 5:00 pm 22.8°C 11.1°C 47 SSE 11 6.21
May 1, 4:39 pm 22.8°C 11.1°C 47 SSE 11 6.21
May 1, 4:30 pm 22.8°C 12.8°C 53 E 11 6.21
May 1, 4:00 pm 22.8°C 10°C 44 E 11 6.21
May 1, 3:30 pm 23.9°C 10°C 41 E 11 6.21
May 1, 3:00 pm 23.9°C 8.9°C 39 ENE 11 6.21
May 1, 2:30 pm 23.9°C 8.9°C 39 E 7 6.21
May 1, 2:00 pm 25°C 7.8°C 34 NW 7 6.21
May 1, 1:30 pm 23.9°C 7.8°C 36 WSW 7 6.21
May 1, 1:00 pm 23.9°C 7.8°C 36 W 9 6.21
May 1, 12:30 pm 22.8°C 7.8°C 38 WSW 9 6.21
May 1, 12:00 pm 22.8°C 8.9°C 41 WSW 9 6.21
May 1, 11:30 am 22.2°C 8.9°C 43 WSW 9 6.21
May 1, 11:00 am 22.2°C 8.9°C 43 W 11 6.21
May 1, 10:30 am 21.1°C 10°C 49 W 11 6.21
May 1, 10:00 am 20°C 7.8°C 46 W 11 6.21
May 1, 9:30 am 20°C 8.9°C 49 WSW 11 6.21
May 1, 9:00 am 18.9°C 10°C 56 SW 11 6.21
May 1, 8:30 am 17.8°C 10°C 60 SW 13 6.21
May 1, 8:00 am 17.8°C 8.9°C 56 SW 9 6.21
May 1, 7:30 am 16.1°C 8.9°C 63 SW 9 6.21
May 1, 7:00 am 15°C 7.8°C 63 SW 7 6.21
May 1, 6:30 am 13.9°C 8.9°C 72 WSW 7 6.21
May 1, 6:00 am 11.1°C 10°C 94 2 6.21
May 1, 5:30 am 10°C 10°C 100 S 4 6.21
May 1, 5:00 am 10°C 10°C 100 SSW 4 6.21
May 1, 4:30 am 11.1°C 8.9°C 87 SW 4 6.21
May 1, 4:00 am 12.2°C 10°C 88 SW 7 6.21
May 1, 3:30 am 12.2°C 10°C 88 SW 7 6.21
May 1, 3:00 am 12.8°C 10°C 82 WSW 7 6.21
May 1, 2:30 am 10°C 8.9°C 94 SW 4 6.21
May 1, 2:00 am 11.1°C 8.9°C 87 SSW 4 6.21
May 1, 1:30 am 11.1°C 8.9°C 87 SSW 7 6.21
May 1, 1:00 am 12.2°C 8.9°C 82 SSW 4 6.21
May 1, 12:30 am 12.2°C 8.9°C 82 S 7 6.21
May 1, 12:00 am 12.8°C 7.8°C 72 SSW 7 6.21
Apr 30, 11:30 pm 12.2°C 8.9°C 82 SSW 7 6.21
Apr 30, 11:00 pm 12.2°C 8.9°C 82 S 7 6.21
Apr 30, 10:30 pm 12.8°C 7.8°C 72 S 4 6.21
Apr 30, 10:00 pm 12.8°C 7.8°C 72 S 4 6.21
Apr 30, 9:30 pm 12.8°C 8.9°C 77 S 4 6.21
Apr 30, 9:00 pm 12.8°C 7.8°C 72 S 7 6.21
Apr 30, 8:30 pm 13.9°C 7.8°C 67 S 4 6.21
Apr 30, 8:00 pm 13.9°C 7.8°C 67 SSE 4 6.21
Apr 30, 7:30 pm 13.9°C 7.8°C 67 S 7 6.21
Apr 30, 7:00 pm 16.1°C 6.1°C 51 E 7 6.21
Apr 30, 6:30 pm 17.2°C 6.1°C 48 E 9 6.21

AviationWeather

Time Temp (C) Dew (C) RH Wind Weather Clouds Vis
2026-05-09 03:00:00Z 22°C 3°C 120 6+
2026-05-09 02:30:00Z 22°C 5°C 130 6+
2026-05-09 02:00:00Z 22°C 5°C 150 6+
2026-05-09 01:30:00Z 21°C 4°C 140 6+
2026-05-09 01:00:00Z 20°C 6°C 150 6+
2026-05-09 00:30:00Z 20°C 7°C 150 6+
2026-05-09 00:00:00Z 19°C 8°C 140 6+
2026-05-08 23:30:00Z 18°C 8°C 160 6+
2026-05-08 23:00:00Z 17°C 8°C 150 6+
2026-05-08 22:30:00Z 16°C 8°C VRB 6+
2026-05-08 22:00:00Z 14°C 11°C 180 6+
2026-05-08 21:30:00Z 14°C 10°C VRB 6+
2026-05-08 21:00:00Z 13°C 10°C 200 6+
2026-05-08 20:30:00Z 13°C 10°C 210 6+
2026-05-08 20:00:00Z 14°C 10°C VRB 6+
2026-05-08 19:30:00Z 14°C 10°C 0 6+
2026-05-08 19:00:00Z 14°C 10°C VRB 6+
2026-05-08 18:30:00Z 15°C 8°C 230 6+
2026-05-08 18:00:00Z 16°C 8°C 240 6+
2026-05-08 17:30:00Z 15°C 7°C VRB 6+
2026-05-08 17:00:00Z 16°C 7°C 250 6+
2026-05-08 16:30:00Z 16°C 8°C 220 6+
2026-05-08 16:00:00Z 16°C 7°C 240 6+
2026-05-08 15:30:00Z 16°C 7°C 210 6+
2026-05-08 15:00:00Z 16°C 6°C 160 6+
2026-05-08 14:30:00Z 16°C 7°C VRB 6+
2026-05-08 14:00:00Z 17°C 6°C VRB 6+
2026-05-08 13:30:00Z 17°C 6°C 60 6+
2026-05-08 13:00:00Z 17°C 5°C 50 6+
2026-05-08 12:30:00Z 17°C 6°C 60 6+
2026-05-08 12:00:00Z 17°C 6°C 50 6+
2026-05-08 11:30:00Z 17°C 5°C 40 6+
2026-05-08 11:00:00Z 17°C 5°C 50 6+
2026-05-08 10:30:00Z 18°C 3°C 40 6+
2026-05-08 10:00:00Z 18°C 4°C 40 6+
2026-05-08 09:30:00Z 18°C 4°C 30 6+
2026-05-08 09:00:00Z 19°C 4°C 30 6+
2026-05-08 08:30:00Z 19°C 4°C 30 6+
2026-05-08 08:00:00Z 19°C 5°C 40 6+
2026-05-08 07:30:00Z 19°C 4°C 40 6+
2026-05-08 07:00:00Z 19°C 5°C 50 6+
2026-05-08 06:30:00Z 19°C 4°C 40 6+
2026-05-08 06:00:00Z 19°C 5°C 50 6+
2026-05-08 05:30:00Z 18°C 6°C 10 6+
2026-05-08 05:00:00Z 19°C 7°C 20 6+
2026-05-08 04:30:00Z 18°C 6°C 30 6+
2026-05-08 04:00:00Z 18°C 7°C 30 6+
2026-05-08 03:30:00Z 18°C 7°C 40 6+

Latest Shanghai Weather News